Temperature
20 19 19 19 19 19 19 18 18 18 18 18 17 17 17 17 17 17 17 17 17 17 17 16 17 17 17 17 17 17 17 17 17 17 17 17 17 16 16 16 16 16 16
20 19 19 19 19 18 18 18 18 18 18 18 17 17 17 17 17 17 17 17 17 16 16 16 16 16 16 16 16 16 16 16 16 16 16 16 16 16 16 16 16 16 16
19 19 19 19 18 18 18 18 18 18 18 18 17 17 17 17 17 16 16 16 16 16 16 16 16 16 16 16 16 16 16 16 16 16 16 16 16 16 15 15 15 15 15
20 19 19 18 18 18 18 18 18 17 17 17 17 17 17 17 16 16 16 16 16 16 16 16 16 16 16 16 16 16 16 16 15 15 15 15 15 15 15 15 15 15 15
20 19 19 19 18 18 18 18 17 17 17 17 17 17 17 16 16 16 16 16 16 16 15 15 15 15 15 15 15 15 15 15 15 15 15 15 15 15 15 15 14 14 14
19 19 19 18 18 18 17 17 17 17 17 17 17 17 16 16 16 16 16 16 15 15 15 15 15 15 15 15 15 15 14 14 15 14 14 14 14 14 14 14 14 14 14
19 19 18 18 18 18 17 17 17 17 17 16 16 16 16 16 16 16 16 15 15 15 15 15 15 15 15 14 14 14 14 14 14 14 14 14 14 14 14 14 14 14 14
19 18 18 18 18 17 17 17 17 16 16 16 16 16 16 16 16 16 15 15 15 15 15 15 15 15 14 14 14 14 14 14 14 14 14 14 14 14 14 14 13 13 13
18 18 18 18 17 17 17 17 16 16 16 16 16 16 16 16 16 15 15 15 15 15 14 14 14 14 14 14 14 14 14 14 14 14 13 13 13 13 13 13 13 13 13
18 18 17 17 17 17 17 16 16 16 16 16 15 15 15 15 15 15 15 15 14 14 14 14 14 14 14 14 14 13 13 13 13 13 13 13 13 13 13 13 13 12 12
18 17 17 17 17 16 16 16 16 16 15 15 15 15 15 15 15 15 15 15 14 14 14 14 14 14 14 13 13 13 13 13 13 13 13 13 13 13 12 12 12 12 12
17 17 17 16 16 16 16 16 15 15 15 15 15 15 15 15 15 15 15 15 14 14 14 13 13 13 13 13 13 13 13 13 12 12 12 12 12 12 12 12 12 12 12
17 17 17 16 16 16 16 15 15 15 15 15 15 14 15 15 14 14 14 14 14 14 13 13 13 13 13 13 13 12 12 12 12 12 12 12 12 12 12 12 12 12 12
16 16 16 16 16 16 16 15 15 15 15 15 14 14 14 14 14 14 14 14 14 13 13 13 13 13 13 13 12 12 12 12 12 12 12 11 11 11 11 11 11 11 11
16 16 16 16 16 16 16 15 15 15 15 15 15 14 14 14 14 14 14 14 13 13 13 13 13 13 12 12 12 12 12 12 11 11 11 11 11 11 11 11 10 11 11
16 16 16 16 16 16 15 15 15 15 15 15 15 14 14 14 14 14 14 14 13 13 13 13 12 12 12 12 12 12 12 11 11 11 11 11 10 10 10 10 10 10 10
15 15 15 15 15 15 15 15 15 15 15 15 15 14 14 14 14 14 14 13 13 13 13 13 12 12 12 12 12 12 11 11 11 11 10 10 10 10 10 10 10 10 10
15 15 15 15 15 15 15 15 15 15 15 15 14 14 14 14 14 14 13 13 13 13 13 12 12 12 12 12 12 12 11 11 11 10 10 10 10 10 10 10 9 9 9
14 14 15 15 15 15 15 15 15 15 14 14 14 14 14 14 13 13 13 13 13 13 13 12 12 12 12 12 11 11 11 11 11 10 10 10 9 9 9 9 9 9 9
14 14 14 14 15 15 15 15 15 14 14 14 14 14 14 14 13 13 13 13 13 12 12 12 12 12 12 11 11 11 11 10 10 10 10 9 9 9 9 9 9 9 9
14 14 14 14 15 15 15 14 14 14 14 14 14 14 14 14 13 13 13 13 12 12 12 12 12 12 11 11 11 11 10 10 10 10 9 9 9 9 9 9 9 9 9
14 14 14 14 14 14 14 14 14 14 14 14 14 13 13 13 13 13 12 12 12 12 12 12 11 11 11 11 11 10 10 10 10 9 9 9 9 9 9 9 9 9 8
13 13 14 14 14 14 14 14 14 14 14 14 13 13 13 13 12 12 12 12 12 12 11 11 11 11 11 10 10 10 10 10 9 9 9 9 9 8 8 8 8 8 8
13 13 14 14 14 14 14 14 14 14 14 13 13 13 13 12 12 12 12 12 11 11 11 11 11 10 10 10 10 10 10 9 9 9 9 8 8 8 8 8 8 8 8
13 13 13 13 13 14 14 13 13 13 13 13 13 13 12 12 12 12 12 11 11 11 11 10 10 10 10 10 9 9 9 9 9 9 8 8 8 8 8 8 8 8 8
13 13 13 13 13 13 13 13 13 13 13 13 13 12 12 12 12 11 11 11 11 10 10 10 10 10 9 9 9 9 9 9 9 8 8 8 8 8 7 7 8 7 7
Wind_Speed
6 5 4 4 3 3 2 2 2 1 1 1 1 0 0 1 0 0 1 1 1 2 2 2 3 3 4 4 3 3 2 2 3 3 2 2 1 0 1 2 4 5 6
6 6 4 4 3 3 2 2 2 2 1 1 0 1 1 0 1 1 2 2 1 2 2 3 3 3 3 4 4 4 3 2 2 4 3 2 2 1 2 2 2 3 5
7 6 4 4 3 3 3 2 2 2 1 1 0 1 1 0 0 1 1 1 2 2 2 2 2 3 3 3 4 3 3 3 2 3 4 2 2 2 2 2 2 1 3
6 6 4 3 3 3 2 2 2 2 2 1 1 1 1 1 1 1 1 1 2 2 2 2 2 2 3 4 4 3 3 3 3 3 3 2 1 2 2 2 2 2 2
5 4 4 3 2 2 2 2 3 3 3 2 2 2 2 2 1 0 1 1 1 2 2 2 2 2 3 3 3 3 3 3 3 3 3 2 2 1 2 2 2 2 2
4 4 3 3 2 2 3 3 3 3 3 3 2 2 2 2 1 2 1 2 2 2 3 3 2 2 1 1 3 4 4 4 3 3 3 3 3 2 2 3 2 2 2
4 4 3 3 3 3 3 2 3 3 2 2 3 2 1 1 0 1 1 1 2 3 3 4 4 4 2 2 3 4 4 4 4 3 3 3 3 2 2 3 3 2 3
4 3 3 3 3 3 3 3 3 2 2 3 3 3 2 2 1 1 1 2 2 2 2 3 2 3 4 3 3 2 3 3 4 3 2 3 3 2 3 3 4 2 2
3 3 3 3 3 3 3 3 3 3 3 3 3 3 3 2 2 2 2 2 2 3 3 2 2 1 2 3 2 2 3 3 3 2 2 3 3 4 3 2 2 2 2
2 2 2 2 3 4 4 3 3 3 4 4 3 3 3 3 3 3 3 3 3 3 2 2 1 1 2 2 2 2 3 3 3 3 3 4 4 4 4 3 3 2 2
1 2 2 3 4 4 3 2 3 4 4 4 4 3 3 4 4 4 4 3 3 3 2 1 0 0 1 2 3 2 4 4 3 3 3 2 2 1 1 1 2 3 2
2 2 3 3 4 3 2 3 4 5 5 4 4 4 3 3 4 5 6 5 4 3 3 2 1 3 4 4 3 4 4 3 3 3 2 1 1 1 1 1 1 2 2
2 3 3 4 4 4 4 4 4 4 4 4 4 4 4 3 3 6 7 7 5 3 3 3 3 4 4 4 5 5 3 2 3 2 1 1 1 0 0 1 2 1 1
2 3 3 4 4 4 4 5 5 5 5 5 5 5 3 2 2 2 3 4 4 4 3 3 3 5 4 3 2 2 3 2 2 2 2 1 1 1 1 1 1 1 1
3 3 4 4 4 4 4 4 5 4 5 5 4 3 3 3 2 3 3 3 3 3 3 3 3 2 2 2 2 2 2 2 2 2 1 1 1 1 1 0 1 2 2
3 4 4 3 3 3 4 3 2 4 5 5 5 4 3 4 4 4 4 4 4 3 2 3 3 3 3 3 3 2 2 2 1 1 1 1 1 1 1 1 1 2 2
4 4 4 4 3 3 3 4 4 3 3 5 6 6 7 7 6 6 6 4 4 4 4 4 4 3 3 3 3 2 1 1 1 1 1 1 1 1 1 1 1 2 2
5 5 4 3 3 3 4 4 5 5 4 3 4 8 9 9 8 7 4 2 3 4 4 4 4 3 3 3 2 2 1 1 1 1 1 1 1 2 2 2 2 3 3
4 4 3 3 4 4 4 4 4 4 4 4 3 3 7 8 7 7 5 4 5 4 4 3 3 2 2 2 1 1 1 1 1 1 1 1 1 2 2 2 3 3 3
4 5 5 5 5 4 4 4 3 3 4 3 3 3 3 4 4 4 4 4 4 4 3 3 2 2 2 2 1 1 1 1 1 2 2 2 2 2 2 3 3 3 3
4 4 6 6 5 4 4 4 4 3 3 2 2 3 4 4 4 3 4 4 4 3 3 2 2 2 1 2 1 1 1 2 2 2 2 2 2 2 2 3 3 3 3
5 5 5 5 4 3 3 4 4 4 3 3 2 2 5 4 3 3 3 3 3 2 2 2 3 2 2 2 2 1 1 2 2 2 2 2 2 2 3 3 3 3 3
5 5 5 5 4 4 4 4 4 3 3 3 2 1 2 2 2 2 2 2 2 2 2 2 3 3 2 1 1 1 1 1 2 2 2 3 3 3 3 3 3 4 4
6 6 6 5 4 4 3 3 3 3 3 3 2 1 2 2 3 3 3 2 1 2 2 2 2 3 1 0 1 0 0 1 2 2 3 4 4 3 3 3 3 4 4
6 6 5 4 4 4 3 3 3 3 3 2 2 2 2 2 3 2 2 2 2 2 3 2 1 1 1 1 1 1 1 1 2 3 4 4 4 4 4 4 4 4 3
5 5 4 4 3 4 3 3 3 3 3 3 2 2 2 2 2 2 1 1 2 2 2 2 1 2 1 1 1 2 2 1 2 4 5 4 4 4 4 4 4 4 3
Wind_Direction
161 159 152 158 166 163 148 142 127 105 114 96 44 41 240 261 267 321 293 305 308 312 312 322 320 317 315 313 316 307 293 291 282 286 280 285 279 295 210 202 185 185 189
152 152 156 154 161 172 162 148 141 148 159 137 165 275 269 351 353 316 314 338 339 327 325 326 318 317 323 318 318 311 306 301 284 283 281 288 265 232 230 231 202 202 185
150 153 158 169 178 183 172 167 161 157 173 131 123 301 319 358 351 320 331 328 317 314 320 316 316 326 317 316 306 303 299 298 291 281 284 285 293 275 263 260 233 220 214
154 157 159 179 188 191 178 172 179 180 197 198 225 245 257 277 290 289 308 309 309 327 332 324 320 314 315 313 308 313 311 309 293 287 281 277 282 273 266 274 269 250 255
144 151 158 166 170 183 189 197 200 203 214 206 224 236 244 252 271 347 289 284 312 313 316 314 311 323 332 319 323 322 318 315 311 303 294 297 306 297 289 286 287 279 266
148 158 160 165 180 194 209 218 218 220 226 218 225 241 250 266 31 38 6 336 332 314 308 303 284 291 310 324 324 319 310 296 301 300 299 306 316 315 301 291 285 279 279
154 162 172 184 192 199 218 214 226 233 230 223 230 230 204 264 32 74 0 307 304 302 299 303 303 306 350 342 314 296 304 299 271 268 291 299 296 299 294 286 284 264 264
161 172 179 191 201 207 213 216 221 225 228 229 232 231 206 238 224 195 266 259 272 279 290 294 299 333 336 339 318 314 306 304 278 261 263 278 293 294 281 270 269 272 263
178 196 194 193 208 217 220 221 216 218 229 232 228 230 215 231 223 214 227 257 261 263 264 277 292 343 349 0 336 315 308 305 323 324 290 281 282 279 283 289 287 264 266
199 207 205 205 223 226 225 225 226 226 233 237 234 234 225 224 213 211 222 250 263 264 260 264 281 22 23 360 319 303 304 311 318 310 298 275 257 256 251 238 249 260 263
216 217 211 209 228 225 223 222 222 228 237 233 228 232 225 212 198 198 205 244 268 281 274 269 250 135 275 283 274 271 280 290 292 288 281 267 263 259 250 237 244 239 248
242 231 225 216 231 232 209 229 230 228 230 229 228 233 227 212 200 200 202 229 268 288 294 302 222 202 235 255 255 268 285 298 282 284 301 324 346 6 354 348 290 248 236
273 255 242 233 219 216 219 231 234 230 228 229 228 234 229 219 202 195 203 224 249 266 295 307 276 238 246 241 239 256 277 285 287 295 306 344 16 330 306 349 328 286 224
273 272 254 238 220 207 211 216 225 236 235 233 232 236 227 207 194 195 214 229 239 249 273 285 257 238 251 258 238 238 235 250 265 282 304 338 7 328 282 307 295 281 255
270 275 269 250 232 212 217 228 229 234 234 235 239 236 236 235 212 201 216 231 244 251 266 258 249 234 232 233 228 226 232 231 250 272 277 307 325 309 293 295 296 297 272
274 276 275 271 248 219 216 236 248 235 226 214 215 217 222 203 202 209 217 230 234 217 228 250 244 240 246 248 244 233 223 219 235 253 239 232 258 273 283 275 260 264 278
267 273 274 272 269 256 235 231 239 254 242 230 231 221 219 222 221 227 230 240 242 203 221 242 244 243 245 249 248 247 232 205 202 232 231 244 266 275 282 277 272 274 277
260 269 271 272 272 269 259 246 240 237 238 242 231 220 217 215 218 223 221 216 247 224 234 243 248 246 245 244 245 242 223 191 185 224 235 259 269 274 278 275 274 279 274
274 269 269 274 274 269 266 257 251 239 233 226 217 213 210 207 215 223 207 230 241 243 251 256 260 261 261 252 246 241 215 188 191 218 229 245 263 270 274 274 272 272 270
276 273 268 270 270 269 267 269 263 254 250 230 219 208 181 187 212 212 210 225 238 245 250 252 256 258 258 262 251 240 237 223 213 230 236 237 248 262 268 269 276 279 273
280 276 268 264 261 265 268 272 268 260 262 254 236 195 185 210 221 216 214 218 225 238 243 260 264 259 251 260 262 255 245 246 248 256 254 252 250 253 265 265 268 275 281
275 275 272 268 265 269 273 271 269 267 267 257 243 189 180 207 233 235 234 224 219 225 235 249 269 266 255 266 253 232 267 288 282 285 291 284 275 261 266 266 269 279 282
266 270 271 278 281 268 259 258 265 264 262 258 243 196 187 220 243 248 253 248 223 220 234 239 251 261 258 241 193 171 222 259 281 292 288 282 280 273 268 268 270 275 279
264 265 264 267 274 277 269 266 263 261 255 252 246 218 211 228 240 245 247 242 243 252 249 258 266 270 252 227 95 114 311 292 290 291 287 279 281 281 274 269 267 273 278
264 266 265 264 270 277 273 273 273 269 263 253 245 240 237 236 243 248 241 230 250 265 268 258 256 281 332 68 104 90 22 5 326 308 287 270 265 271 271 268 267 273 284
270 269 273 274 272 279 288 285 276 271 265 260 254 248 243 243 256 271 254 237 246 255 261 261 244 227 196 157 128 117 101 18 313 299 282 271 266 263 269 275 278 275 280
Height
1508 1510 1511 1512 1513 1514 1515 1516 1516 1517 1517 1517 1517 1517 1517 1517 1516 1516 1516 1516 1515 1515 1515 1514 1514 1514 1513 1513 1513 1512 1512 1512 1511 1511 1511 1511 1510 1509 1508 1508 1507 1506 1506
1507 1508 1510 1511 1512 1513 1513 1514 1515 1515 1515 1515 1515 1515 1516 1515 1515 1515 1514 1514 1514 1513 1513 1512 1512 1512 1511 1510 1510 1510 1509 1509 1509 1508 1507 1507 1507 1506 1506 1505 1504 1504 1503
1506 1507 1509 1510 1510 1511 1512 1512 1513 1513 1514 1514 1514 1514 1514 1514 1514 1513 1513 1512 1512 1511 1511 1510 1510 1509 1509 1508 1508 1507 1507 1506 1506 1505 1504 1504 1503 1503 1503 1502 1502 1502 1501
1505 1506 1507 1508 1509 1509 1510 1511 1511 1511 1511 1512 1512 1512 1512 1512 1511 1511 1511 1510 1510 1509 1508 1508 1507 1507 1506 1506 1505 1505 1504 1503 1503 1503 1502 1501 1500 1500 1500 1499 1499 1499 1499
1503 1504 1505 1506 1507 1508 1508 1509 1509 1509 1510 1509 1510 1510 1510 1510 1509 1509 1509 1508 1508 1507 1506 1506 1505 1505 1504 1503 1503 1502 1501 1500 1500 1499 1499 1498 1497 1497 1497 1496 1496 1495 1495
1502 1503 1504 1504 1505 1506 1506 1506 1507 1507 1507 1507 1507 1507 1507 1508 1507 1507 1506 1506 1505 1504 1504 1503 1503 1502 1501 1500 1500 1499 1499 1498 1497 1497 1496 1495 1495 1494 1494 1493 1493 1492 1491
1500 1501 1502 1502 1503 1503 1504 1504 1504 1504 1504 1504 1504 1505 1504 1504 1504 1504 1504 1503 1503 1502 1501 1500 1500 1500 1498 1497 1497 1496 1496 1495 1495 1494 1493 1493 1492 1491 1491 1490 1490 1489 1489
1498 1499 1499 1500 1501 1501 1501 1501 1502 1502 1502 1502 1502 1502 1501 1501 1502 1501 1501 1500 1500 1499 1498 1498 1497 1496 1496 1495 1494 1493 1492 1492 1491 1491 1490 1490 1489 1489 1488 1487 1487 1487 1487
1495 1496 1497 1497 1498 1498 1498 1498 1499 1499 1499 1499 1499 1499 1498 1498 1498 1498 1498 1498 1497 1497 1496 1496 1495 1494 1493 1492 1491 1490 1489 1489 1488 1488 1487 1487 1486 1486 1485 1484 1484 1484 1483
1493 1493 1494 1494 1495 1495 1495 1495 1496 1496 1496 1496 1496 1496 1496 1496 1496 1496 1495 1495 1494 1494 1494 1493 1492 1491 1491 1490 1489 1488 1487 1486 1485 1484 1484 1483 1482 1482 1482 1482 1481 1481 1481
1490 1491 1491 1491 1492 1492 1492 1492 1493 1493 1493 1493 1493 1493 1493 1493 1493 1493 1493 1492 1492 1492 1491 1490 1490 1489 1488 1487 1486 1485 1484 1483 1482 1481 1480 1480 1479 1479 1479 1479 1478 1479 1478
1488 1488 1488 1488 1489 1489 1489 1489 1490 1490 1490 1490 1490 1490 1490 1490 1490 1490 1490 1490 1490 1489 1489 1489 1488 1487 1486 1485 1484 1483 1482 1481 1480 1479 1478 1477 1476 1476 1475 1475 1475 1476 1476
1485 1485 1485 1485 1485 1485 1486 1486 1486 1486 1487 1486 1487 1487 1487 1487 1487 1487 1487 1487 1487 1486 1486 1486 1486 1485 1483 1482 1481 1481 1480 1479 1478 1477 1475 1474 1474 1473 1473 1473 1473 1473 1473
1482 1482 1481 1481 1481 1482 1482 1482 1482 1482 1482 1483 1483 1483 1484 1484 1483 1483 1483 1483 1483 1483 1483 1483 1482 1482 1481 1480 1479 1478 1477 1476 1475 1474 1474 1473 1472 1472 1471 1471 1471 1471 1471
1479 1479 1478 1478 1478 1478 1479 1479 1479 1479 1479 1479 1479 1480 1480 1480 1480 1480 1480 1480 1480 1480 1479 1479 1479 1479 1478 1477 1476 1475 1475 1474 1473 1472 1472 1471 1470 1470 1470 1470 1470 1470 1470
1476 1476 1476 1475 1475 1475 1475 1475 1476 1476 1476 1476 1476 1477 1477 1477 1476 1476 1477 1477 1477 1477 1476 1476 1476 1475 1475 1474 1474 1473 1472 1471 1470 1470 1469 1469 1469 1469 1468 1468 1468 1468 1468
1473 1473 1473 1473 1472 1472 1472 1472 1472 1472 1472 1473 1473 1473 1473 1474 1473 1473 1473 1474 1474 1473 1473 1473 1473 1473 1472 1472 1472 1471 1470 1469 1468 1468 1467 1467 1467 1467 1466 1466 1466 1466 1466
1470 1470 1469 1469 1469 1469 1469 1469 1469 1468 1468 1468 1469 1469 1470 1470 1470 1470 1470 1470 1470 1470 1470 1470 1470 1470 1470 1470 1469 1468 1468 1467 1466 1466 1465 1465 1465 1465 1464 1464 1464 1463 1463
1467 1467 1466 1466 1466 1466 1466 1466 1465 1465 1465 1464 1464 1465 1465 1466 1467 1467 1467 1467 1467 1467 1467 1467 1467 1467 1467 1467 1466 1466 1465 1465 1464 1464 1464 1463 1463 1462 1462 1462 1461 1461 1461
1464 1463 1463 1463 1463 1463 1463 1462 1462 1462 1462 1461 1461 1461 1462 1462 1462 1463 1463 1463 1464 1464 1464 1464 1464 1464 1464 1464 1463 1463 1462 1462 1461 1461 1461 1461 1460 1460 1460 1459 1459 1458 1458
1461 1460 1460 1460 1460 1459 1459 1459 1459 1459 1459 1459 1458 1458 1459 1459 1459 1460 1460 1460 1460 1460 1460 1461 1461 1460 1460 1460 1460 1460 1459 1459 1459 1458 1458 1458 1458 1457 1457 1457 1456 1456 1455
1458 1457 1457 1457 1457 1456 1456 1456 1456 1456 1455 1455 1455 1456 1456 1456 1456 1457 1457 1457 1457 1457 1457 1457 1457 1457 1457 1457 1457 1456 1455 1455 1455 1455 1455 1454 1454 1454 1454 1453 1452 1452 1451
1454 1454 1454 1454 1454 1453 1452 1452 1452 1452 1452 1452 1453 1452 1452 1453 1453 1453 1454 1454 1454 1454 1453 1453 1454 1453 1453 1453 1453 1453 1452 1452 1452 1452 1451 1451 1451 1450 1450 1450 1449 1448 1448
1451 1450 1450 1450 1450 1450 1449 1449 1449 1449 1449 1449 1449 1449 1449 1450 1450 1450 1450 1450 1450 1450 1450 1450 1450 1450 1449 1449 1449 1449 1449 1448 1448 1448 1448 1448 1447 1447 1447 1446 1446 1445 1445
1447 1447 1447 1447 1447 1446 1446 1446 1446 1446 1446 1446 1446 1446 1446 1447 1447 1447 1447 1447 1447 1447 1447 1447 1446 1446 1446 1445 1445 1445 1445 1445 1445 1445 1444 1444 1444 1443 1443 1443 1442 1442 1441
1443 1443 1443 1443 1443 1443 1443 1443 1443 1443 1443 1443 1443 1443 1443 1443 1444 1444 1444 1443 1443 1443 1443 1443 1443 1442 1442 1442 1441 1441 1441 1441 1441 1441 1440 1440 1439 1439 1439 1439 1439 1438 1438